DW9643 Weather Reports


time (UTC)temp
C
wind
direction
speed
KPH
gust
KPH
rain 1hr
cm
rain 24hr
cm
rain mn
cm
humidity
%
barometer
mb
20260902231603 32 199 4.8 12.9 0.00 0.00 0.00 56 1017.9
20260902230105 32 187 6.4 16.1 0.00 0.00 0.00 56 1018.0
20260902224603 33 176 6.4 16.1 0.00 0.00 0.00 55 1018.0
20260902223106 33 175 6.4 14.5 0.00 0.00 0.00 55 1018.1
20260902221605 33 200 3.2 20.9 0.00 0.00 0.00 55 1018.1
20260902220107 33 204 6.4 20.9 0.00 0.00 0.00 52 1018.2
20260902214600 33 210 6.4 20.9 0.00 0.00 0.00 51 1018.1
20260902213059 33 208 6.4 17.7 0.00 0.00 0.00 52 1018.2
20260902211607 35 165 4.8 17.7 0.00 0.00 0.00 52 1018.3
20260902204602 34 198 4.8 16.1 0.00 0.00 0.00 52 1018.4
20260902203103 34 175 11.3 22.5 0.00 0.00 0.00 54 1018.5
20260902201611 33 207 8.0 16.1 0.00 0.00 0.00 51 1018.6
20260902194606 34 170 4.8 16.1 0.00 0.00 0.00 48 1018.8
20260902193105 33 261 1.6 14.5 0.00 0.00 0.00 51 1019.1
20260902191604 34 0 1.6 24.1 0.00 0.00 0.00 50 1019.2
20260902190100 33 291 4.8 17.7 0.00 0.00 0.00 50 1019.4
20260902184602 33 209 1.6 14.5 0.00 0.00 0.00 50 1019.6
20260902183100 33 242 4.8 16.1 0.00 0.00 0.00 50 1019.7
20260902181603 33 0 3.2 20.9 0.00 0.00 0.00 49 1019.8
20260902180107 33 0 6.4 17.7 0.00 0.00 0.00 55 1019.8
20260902174605 33 203 6.4 20.9 0.00 0.00 0.00 53 1020.0
20260902173102 33 211 1.6 22.5 0.00 0.00 0.00 52 1020.0
20260902171611 33 192 3.2 12.9 0.00 0.00 0.00 54 1020.2
20260902170104 32 274 1.6 12.9 0.00 0.00 0.00 59 1020.3
20260902164604 32 0 1.6 19.3 0.00 0.00 0.00 59 1020.3
20260902163101 32 201 1.6 16.1 0.00 0.00 0.00 59 1020.4
20260902161614 32 241 3.2 11.3 0.00 0.00 0.00 57 1020.5
20260902160117 32 0 3.2 11.3 0.00 0.00 0.00 62 1020.7
20260902154601 32 279 8.0 17.7 0.00 0.00 0.00 61 1020.9
20260902153102 32 326 1.6 9.7 0.00 0.00 0.00 64 1020.9
20260902151606 31 0 0.0 6.4 0.00 0.00 0.00 67 1020.9
20260902144602 30 312 0.0 11.3 0.00 0.00 0.00 68 1020.9
20260902143106 29 282 1.6 6.4 0.00 0.00 0.00 71 1020.9
20260902141601 28 217 1.6 9.7 0.00 0.00 0.00 74 1021.1
20260902134600 26 0 0.0 11.3 0.00 0.00 0.00 77 1021.0
20260902133109 26 0 0.0 9.7 0.00 0.00 0.00 79 1021.0
20260902131602 25 0 1.6 6.4 0.00 0.00 0.00 82 1020.9
20260902124604 24 197 3.2 6.4 0.00 0.00 0.00 88 1020.9
20260902123110 23 0 0.0 0.0 0.00 0.00 0.00 90 1020.7
20260902121606 22 0 0.0 0.0 0.00 0.00 0.00 92 1020.5
20260902114604 21 0 0.0 0.0 0.00 0.00 0.00 92 1020.2
20260902113104 21 0 0.0 0.0 0.00 0.00 0.00 92 1020.1
20260902111607 21 0 0.0 0.0 0.00 0.00 0.00 92 1019.9
20260902110106 21 0 0.0 0.0 0.00 0.00 0.00 92 1019.9
20260902104616 22 0 0.0 0.0 0.00 0.00 0.00 92 1019.9
20260902103101 22 0 0.0 0.0 0.00 0.00 0.00 92 1019.8
20260902101602 22 0 0.0 0.0 0.00 0.00 0.00 92 1019.8
20260902094609 22 0 0.0 0.0 0.00 0.00 0.00 92 1019.6
20260902093105 22 0 0.0 0.0 0.00 0.00 0.00 92 1019.7
20260902091605 22 0 0.0 0.0 0.00 0.00 0.00 92 1019.6
20260902090125 22 0 0.0 0.0 0.00 0.00 0.00 92 1019.5
20260902084606 22 0 0.0 0.0 0.00 0.00 0.00 92 1019.5
20260902083111 22 0 0.0 0.0 0.00 0.00 0.00 92 1019.2
20260902081607 22 0 0.0 0.0 0.00 0.00 0.00 91 1019.2
20260902080115 22 0 0.0 0.0 0.00 0.00 0.00 91 1019.1
20260902074600 22 0 0.0 0.0 0.00 0.00 0.00 91 1018.9
20260902073100 22 0 0.0 0.0 0.00 0.00 0.00 91 1019.1
20260902071603 22 0 0.0 0.0 0.00 0.00 0.00 91 1019.0
20260902070108 22 0 0.0 0.0 0.00 0.00 0.00 91 1019.0
20260902064603 22 0 0.0 0.0 0.00 0.00 0.00 90 1018.9
20260902063106 22 0 0.0 0.0 0.00 0.00 0.00 90 1019.1
20260902061613 23 0 0.0 0.0 0.00 0.00 0.00 90 1019.1
20260902060105 23 0 0.0 0.0 0.00 0.00 0.00 90 1019.2
20260902054609 23 0 0.0 0.0 0.00 0.00 0.00 90 1019.2
20260902053102 23 0 0.0 0.0 0.00 0.00 0.00 91 1019.1
20260902051607 23 0 0.0 0.0 0.00 0.00 0.00 90 1019.1
20260902044605 23 0 0.0 0.0 0.00 0.00 0.00 91 1019.2
20260902043106 23 0 0.0 0.0 0.00 0.00 0.00 91 1019.1
20260902041605 23 0 0.0 0.0 0.00 0.00 0.00 90 1019.3
20260902040106 23 0 0.0 0.0 0.00 0.00 0.00 90 1019.3
20260902034602 23 0 0.0 0.0 0.00 0.00 0.00 90 1019.3
20260902033115 23 0 0.0 0.0 0.00 0.00 0.00 90 1019.2
20260902031603 23 0 0.0 0.0 0.00 0.00 0.00 89 1019.3
20260902030103 24 0 0.0 0.0 0.00 0.00 0.00 89 1019.2
20260902024602 24 0 0.0 0.0 0.00 0.00 0.00 89 1019.3
20260902023106 25 0 0.0 0.0 0.00 0.00 0.00 89 1019.4
20260902021609 25 0 0.0 0.0 0.00 0.00 0.00 87 1019.3
20260902020105 25 0 0.0 0.0 0.00 0.00 0.00 86 1019.2
20260902014603 26 0 0.0 0.0 0.00 0.00 0.00 83 1019.1
20260902013059 26 0 0.0 0.0 0.00 0.00 0.00 81 1018.9
20260902011601 27 0 0.0 0.0 0.00 0.00 0.00 78 1018.8
20260902010105 27 0 0.0 0.0 0.00 0.00 0.00 75 1018.7
20260902004604 28 0 0.0 0.0 0.00 0.00 0.00 73 1018.6
20260902003104 29 0 0.0 0.0 0.00 0.00 0.00 70 1018.7
20260902001603 30 0 0.0 1.6 0.00 0.00 0.00 66 1018.7
20260902000103 31 0 0.0 3.2 0.00 0.00 0.00 63 1018.8
20260901234613 31 202 1.6 6.4 0.00 0.00 0.00 60 1018.8
20260901233110 31 205 3.2 12.9 0.00 0.00 0.00 58 1018.9